Home   Weather   Formosa   Past weeks

Flag for Argentina Past Weather in Formosa, Formosa, Argentina — Yesterday and Last 2 Weeks

Now
84 °F

Passing clouds.


Feels Like: 91 °F
Forecast: N/A
Wind: 3 mph from West

Location: Formosa Aerodrome

Current Time: Dec 3, 2016 at 6:58:11 pm

Latest Report: Dec 3, 2016 at 6:00 pm


Visibility: N/A

Pressure: 29.74 "Hg

Humidity: 70%

Dew Point: 73 °F

Location of FormosaLocation

Past Weather in Formosa — Graph

°F

Formosa Temperature Yesterday

Maximum temperature yesterday: 90 °F (at 2:00 pm)
Minimum temperature yesterday: 72 °F (at 9:00 pm)
Average temperature yesterday: 79 °F

High & Low Weather Summary for the Past Weeks

 TemperatureHumidityPressure
High90 °F (Nov 21, 1:00 pm)100% (Nov 19, 2:00 am)30.07 "Hg (Nov 19, 2:00 am)
Low52 °F (Nov 19, 5:00 am)38% (Nov 21, 1:00 pm)29.53 "Hg (Nov 27, 5:00 pm)
Average75 °F76%29.88 "Hg
* Reported Nov 18 5:00 pm — Dec 3 5:00 pm, Formosa, Weather by CustomWeather, © 2016

Note: Actual official high and low records may vary slightly from our data, if they occured in-between our weather recording intervals... More about our weather records

Advertising

Formosa Weather History for the Previous 24 Hours

Scroll right to see more
 ConditionsComfort  
Time TempWeatherWind HumidityBarometerVisibility
5:00 pm
Sat, Dec 3
84 °FScattered clouds.7 mph66%29.74 "HgN/A
4:00 pm84 °FPartly sunny.6 mph66%29.77 "HgN/A
3:00 pm84 °FScattered clouds.8 mph66%29.77 "HgN/A
2:00 pm82 °FScattered clouds.10 mph74%29.80 "HgN/A
1:00 pm79 °FPartly sunny.6 mph84%29.80 "HgN/A
12:00 pm79 °FPartly sunny.2 mph79%29.83 "HgN/A
11:00 am77 °FPartly sunny.5 mph83%29.83 "HgN/A
10:00 am75 °FPartly sunny.7 mph89%29.83 "HgN/A
9:00 am73 °FOvercast.9 mph94%29.83 "HgN/A
8:00 am72 °FMostly cloudy.7 mph100%29.83 "HgN/A
7:00 am72 °FLow clouds.8 mph94%29.80 "HgN/A
6:00 am72 °FOvercast.13 mph94%29.77 "HgN/A
5:00 am70 °FPassing clouds.3 mph100%29.74 "HgN/A
4:00 am70 °FPassing clouds.6 mph100%29.74 "HgN/A
3:00 am72 °FPartly cloudy.2 mph94%29.74 "HgN/A
2:00 am72 °FMostly cloudy.7 mph100%29.74 "HgN/A
1:00 am73 °FThunderstorms. Mostly cloudy.28 mph94%29.68 "Hg5 mi
12:00 am72 °FThunderstorms. Mostly cloudy.10 mph100%29.83 "Hg4 mi
11:00 pm
Fri, Dec 2
72 °FStrong thunderstorms. Overcast.12 mph100%29.92 "Hg1 mi
10:00 pm72 °FThunderstorms. Passing clouds.13 mph100%29.86 "Hg2 mi
9:00 pm72 °FThunderstorms. Partly cloudy.12 mph100%29.83 "Hg2 mi
8:00 pm73 °FThunderstorms. Partly cloudy.15 mph94%29.80 "Hg2 mi
7:00 pm73 °FThunderstorms. Partly sunny.12 mph94%29.83 "Hg2 mi
6:00 pm75 °FThunderstorms. Partly sunny.14 mph94%29.77 "Hg2 mi
Weather by CustomWeather, © 2016

See weather overviewHow to use our weather pages